Regional Weather Roundup
Issued by NWS

Home | Current Version | Previous Version | Text Only | Print | Product List | Glossary Off
Versions: 1 2 3 4 5 6 7 8 9 10 11 12 13 14 15 16 17 18 19 20 21 22 23 24 25 26 27 28 29 30 31 32 33 34 35 36 37 38 39 40 41 42 43 44 45 46 47 48 49 50

301
ASUS45 KBOU 060007
RWRCO

WEATHER ROUNDUP FOR COLORADO
NATIONAL WEATHER SERVICE DENVER/BOULDER CO
500 PM MST FRI FEB 05 2016

NOTE: "FAIR" INDICATES FEW OR NO CLOUDS BELOW 12000 FEET WITH NO
SIGNIFICANT WEATHER AND/OR OBSTRUCTIONS TO VISIBILITY.

COZ001>005-013-030-031-060100-
...NORTHWEST COLORADO...

CITY           SKY/WX    TMP DP  RH WIND       PRES   REMARKS
CRAIG          CLOUDY    13   9  84 CALM      30.46R
HAYDEN         CLOUDY    14   7  73 S6        30.43S WCI   5
MEEKER         CLOUDY    20  14  77 CALM      30.44R
MOUNT WERNER   NOT AVBL
STEAMBOAT SPGS CLOUDY    20  12  69 E3        30.43R
WALDEN         CLOUDY    14   5  67 S14       30.35R WCI  -1
$$

COZ006>008-011-060100-
...WEST CENTRAL VALLEYS...

CITY           SKY/WX    TMP DP  RH WIND       PRES   REMARKS
GRAND JUNCTION CLOUDY    20  14  77 NE3       30.52S
MONTROSE       CLEAR     24  12  60 E5        30.50S WCI  18
EAGLE          CLEAR     25  10  54 W8        30.45R WCI  16
RIFLE          CLOUDY    21  11  65 CALM      30.48F
DELTA          CLEAR     28  17  61 CALM      30.51F
NUCLA          CLEAR     30  16  55 CALM      30.49S
$$

COZ017>023-064>068-060100-
...SOUTHWEST COLORADO...

CITY           SKY/WX    TMP DP  RH WIND       PRES   REMARKS
DURANGO        CLEAR     24  11  57 E6        30.36S WCI  17
CORTEZ         CLEAR     33  13  43 NW10      30.40S WCI  25
PAGOSA SPRINGS CLEAR     27   9  46 S7        30.34S WCI  19
TELLURIDE      CLOUDY    21   1  42 W7        30.37R WCI  13
WOLF CREEK PAS CLOUDY    12  -8  40 N5        30.30S WCI   4
$$

COZ009-010-012-014-032>034-037-058>063-060100-
...CENTRAL COLORADO...

CITY           SKY/WX    TMP DP  RH WIND       PRES   REMARKS
ASPEN          CLOUDY    11   3  70 NW3       30.38S
BUENA VISTA    CLOUDY    25   4  39 NW18      30.28R WCI  12
COPPER MTN     CLOUDY     9   0  66 W9        30.25S WCI  -5
BERTHOUD PASS  CLOUDY     0 -11  60 NW23G31   30.20S WCI -24
COTTONWOOD PAS CLOUDY    27  -6  24 SW13G18   30.24S WCI  16
GUNNISON       CLOUDY     7  -2  66 NE8       30.42S WCI  -6
KREMMLING      CLOUDY     9   1  72 CALM      30.43R
LEADVILLE      CLOUDY    13   1  59 NW13      30.27S WCI  -2
MONARCH PASS   CLOUDY     5   0  78 MISG      30.34R
SALIDA         CLOUDY    30   5  33 NW5       30.36R WCI  25
SUNLIGHT       CLEAR    N/A N/A N/A CALM        N/A
WILKERSON PASS CLOUDY    12  -2  52 N9G22     30.21S WCI   0
$$

COZ069>075-060100-
...SAN LUIS VALLEY/SANGRE DE CRISTO MOUNTAINS...

CITY           SKY/WX    TMP DP  RH WIND       PRES   REMARKS
ALAMOSA        CLEAR     28   4  35 NW6       30.30R WCI  22
LA VETA PASS   CLEAR     16   3  57 MISG      30.21S
SAGUACHE       CLEAR     23   5  46 N15       30.31S WCI  10
$$

COZ035-036-038>040-060100-
...NORTHERN COLORADO FRONT RANGE...

CITY           SKY/WX    TMP DP  RH WIND       PRES   REMARKS
DENVER INTL AP PTCLDY    24  12  60 SE9       30.26S WCI  14
DMNS CITY PARK   N/A     32  10  39 E10       30.27R WCI  24
AURORA         PTCLDY    26  13  56 S9        30.27S WCI  17
FRONT RANGE AP NOT AVBL
ERIE MUNI ARPT CLEAR     32  15  48 SE7       30.26S WCI  26
BOULDER MUN AP CLEAR     32  12  43 N3        30.26S
CENTENNIAL     PTCLDY    29  11  47 SE6       30.26S WCI  23
BROOMFIELD     PTCLDY    32  12  43 SE5       30.26S WCI  27
FORT COLLINS   CLEAR     28  14  54 S6        30.28R WCI  22
LONGMONT       CLEAR     35  12  39 CALM      30.29R
$$

COZ041-046-047-076>085-087-088-060100-
...PIKES PEAK/PALMER DIVIDE AND SOUTHERN FOOTHILLS...

CITY           SKY/WX    TMP DP  RH WIND       PRES   REMARKS
COLO. SPRINGS  PTCLDY    27   8  44 E6        30.28S WCI  20
A. F. ACADEMY  CLEAR     26   7  45 S7        30.25S WCI  18
SCHRIEVER AFB  FAIR      23   9  55 NE12      30.28S WCI  11
ELLICOTT       NOT AVBL
FALCON         CLEAR     23   7  51 NE3       30.26S
FORT CARSON    CLEAR     30  14  51 SE6       30.25S WCI  24
LIMON          CLEAR     17   9  70 NW7       30.27F WCI   8
MONUMENT HILL  CLEAR     19   7  58 SE5       30.25F WCI  13
TRINIDAD       CLEAR     31  15  52 NE6       30.30R WCI  25
$$

COZ042>045-048>051-090-091-060100-
...NORTHEAST COLORADO...

CITY           SKY/WX    TMP DP  RH WIND       PRES   REMARKS
GREELEY ARPT   CLOUDY    30  18  59 E3        30.28R
AKRON          CLEAR     25  15  66 NW14      30.26F WCI  13
BURLINGTON     CLEAR     31  17  56 NW16      30.26F WCI  20
WRAY           CLEAR     33  22  64 NW14      30.27R WCI  23
STERLING       CLEAR     30  19  64 NW16      30.27S WCI  19
HOLYOKE        CLEAR     34  21  60 W9        30.26S WCI  26
FORT MORGAN    CLEAR     29  16  58 N13       30.27R WCI  18
$$

COZ086-089-092>099-060100-
...SOUTHEAST COLORADO...

CITY           SKY/WX    TMP DP  RH WIND       PRES   REMARKS
PUEBLO         CLEAR     37  13  37 SE8       30.30R
LA JUNTA       CLEAR     36  16  44 N6        30.32S
LAMAR          CLEAR     38  17  42 N9        30.30R
SPRINGFIELD      N/A     33  20  58 NW12      30.30R WCI  24
$$




USA.gov is the U.S. government's official web portal to all federal, state and local government web resources and services.